TimeCST,TemperatureF,Dew PointF,Humidity,Sea Level PressureIn,VisibilityMPH,Wind Direction,Wind SpeedMPH,Gust SpeedMPH,PrecipitationIn,Events,Conditions,WindDirDegrees,DateUTC
12:52 AM,-0.0,-6.0,76,30.43,8.0,Calm,Calm,-,N/A,,Clear,0,2013-12-23 06:52:00
1:52 AM,-2.0,-8.0,76,30.48,9.0,NW,4.6,-,N/A,,Clear,320,2013-12-23 07:52:00
2:52 AM,1.0,-5.1,75,30.50,9.0,NW,6.9,-,N/A,,Mostly Cloudy,310,2013-12-23 08:52:00
3:52 AM,3.9,-0.9,80,30.52,10.0,NW,8.1,-,N/A,,Overcast,310,2013-12-23 09:52:00
4:52 AM,9.0,1.9,73,30.53,10.0,NW,5.8,-,N/A,,Overcast,310,2013-12-23 10:52:00
5:52 AM,10.9,3.9,73,30.56,10.0,NNW,8.1,-,N/A,,Overcast,330,2013-12-23 11:52:00
6:52 AM,10.0,1.9,70,30.58,10.0,NNW,6.9,-,N/A,,Overcast,340,2013-12-23 12:52:00
7:52 AM,8.1,1.0,73,30.61,10.0,NNW,5.8,-,N/A,,Overcast,330,2013-12-23 13:52:00
8:52 AM,8.1,1.0,73,30.66,10.0,WNW,6.9,-,N/A,,Mostly Cloudy,300,2013-12-23 14:52:00
9:52 AM,12.0,1.9,64,30.69,5.0,NNW,11.5,-,N/A,,Haze,340,2013-12-23 15:52:00
10:52 AM,12.9,3.9,67,30.70,6.0,NNW,9.2,-,0.00,,Haze,330,2013-12-23 16:52:00
11:23 AM,12.9,5.0,71,30.64,4.0,NW,8.1,-,N/A,,Haze,310,2013-12-23 17:23:00
11:33 AM,12.9,3.9,67,30.64,8.0,NNW,9.2,-,N/A,,Overcast,340,2013-12-23 17:33:00
11:43 AM,12.9,3.0,65,30.63,6.0,NNW,11.5,-,N/A,,Haze,340,2013-12-23 17:43:00
11:52 AM,12.9,3.0,65,30.69,4.0,NNW,11.5,-,0.00,Snow,Light Snow,330,2013-12-23 17:52:00
12:12 PM,12.9,1.9,62,30.62,10.0,NNW,10.4,-,0.00,,Overcast,340,2013-12-23 18:12:00
12:52 PM,12.9,3.0,65,30.67,10.0,WNW,8.1,-,0.00,,Mostly Cloudy,290,2013-12-23 18:52:00
1:52 PM,15.1,3.9,61,30.64,10.0,NW,6.9,-,N/A,,Mostly Cloudy,310,2013-12-23 19:52:00
2:01 PM,15.1,3.9,61,30.59,10.0,NW,4.6,-,N/A,,Scattered Clouds,320,2013-12-23 20:01:00
2:33 PM,14.0,3.9,64,30.59,10.0,West,8.1,-,N/A,,Mostly Cloudy,280,2013-12-23 20:33:00
2:42 PM,14.0,3.9,64,30.59,10.0,West,8.1,-,N/A,,Scattered Clouds,280,2013-12-23 20:42:00
2:52 PM,14.0,3.9,64,30.64,10.0,West,6.9,-,N/A,,Partly Cloudy,280,2013-12-23 20:52:00
3:52 PM,12.9,1.9,62,30.65,10.0,NW,3.5,-,N/A,,Clear,310,2013-12-23 21:52:00
4:52 PM,8.1,-0.0,70,30.66,10.0,NW,3.5,-,N/A,,Clear,320,2013-12-23 22:52:00
5:52 PM,3.9,-0.0,84,30.67,10.0,Calm,Calm,-,N/A,,Clear,0,2013-12-23 23:52:00
6:52 PM,1.9,-2.9,80,30.67,10.0,Calm,Calm,-,N/A,,Mostly Cloudy,0,2013-12-24 00:52:00
7:52 PM,6.1,-0.0,76,30.68,10.0,Calm,Calm,-,N/A,,Overcast,0,2013-12-24 01:52:00
8:52 PM,5.0,-0.9,76,30.69,10.0,Calm,Calm,-,N/A,,Overcast,0,2013-12-24 02:52:00
9:52 PM,7.0,1.0,77,30.67,10.0,East,3.5,-,N/A,,Overcast,100,2013-12-24 03:52:00
10:52 PM,3.0,-2.0,80,30.67,10.0,East,3.5,-,N/A,,Partly Cloudy,90,2013-12-24 04:52:00
11:52 PM,1.0,-5.1,75,30.66,8.0,Calm,Calm,-,N/A,,Partly Cloudy,0,2013-12-24 05:52:00